Theta_e
313 312 314 314 314 314 313 313 313 312 311 311 311 311 309 301 304 297 294 302 304 309 303 294 294 294 296 293 295 303 291 288 288 283 285 287 285 289 290 288 291 291 292 292 293
312 312 312 314 314 313 313 312 310 312 312 311 310 306 304 304 293 290 303 309 308 306 292 290 288 291 289 289 290 295 290 285 284 284 284 286 285 285 284 286 286 288 291 292 292
311 311 311 311 313 312 311 312 311 309 310 309 309 303 305 299 290 288 305 307 306 302 293 292 289 289 286 287 285 286 285 283 284 285 285 283 283 285 283 283 287 286 288 289 290
310 310 310 310 309 310 311 310 310 309 308 305 303 304 301 295 283 291 304 304 302 296 293 290 289 286 284 282 284 281 282 283 283 284 283 282 284 283 284 285 288 288 288 288 289
310 309 309 309 309 308 309 308 309 308 308 305 303 299 294 287 286 294 301 297 294 293 289 288 286 285 282 282 283 282 282 283 284 284 283 284 282 283 283 287 288 287 288 288 289
309 309 308 308 308 307 306 307 307 306 307 303 302 299 291 282 293 294 292 292 291 291 290 289 286 286 283 282 282 282 282 283 283 283 284 281 282 283 284 286 285 286 286 287 288
309 308 308 307 306 306 304 305 306 305 306 302 299 294 289 285 294 294 292 290 291 291 288 289 290 287 284 281 283 281 280 283 282 283 281 283 280 280 285 285 284 285 286 287 287
308 308 307 306 306 305 304 304 305 308 303 301 297 294 285 292 296 292 293 291 292 292 290 290 290 287 284 284 282 280 280 277 282 282 282 281 276 283 286 284 282 283 283 284 284
308 307 307 305 305 304 303 304 303 302 300 297 293 291 284 294 289 292 292 287 289 290 291 290 289 284 284 280 280 279 274 275 277 281 280 279 276 283 285 282 280 281 281 282 284
308 307 306 305 305 306 305 302 301 297 294 293 292 289 287 284 289 290 292 289 286 287 287 286 285 282 281 279 272 272 273 275 275 279 278 278 278 281 282 280 280 281 282 282 283
307 305 304 304 304 302 298 297 292 291 290 285 285 283 285 289 291 288 289 287 287 284 280 282 280 275 276 277 276 275 274 274 277 280 277 277 277 279 281 280 280 281 281 282 282
306 304 304 301 302 300 298 291 289 291 283 287 286 286 287 288 283 286 289 283 282 277 280 280 275 277 279 278 276 276 274 275 277 279 277 277 275 279 279 280 281 280 281 281 282
306 303 302 300 297 296 293 291 295 293 286 283 285 285 285 286 281 282 284 282 279 277 276 276 275 278 277 276 274 275 274 274 273 276 276 274 276 276 279 280 280 281 281 282 282
305 302 302 300 295 292 291 293 296 294 287 281 283 284 285 285 280 286 286 282 279 276 276 275 278 276 276 274 275 272 277 275 274 272 271 274 269 274 277 277 278 279 280 281 282
304 302 300 298 292 290 290 294 295 294 291 283 282 288 286 281 281 282 286 283 276 276 277 274 275 274 274 274 276 273 277 275 272 271 269 269 269 274 275 274 277 278 279 281 283
303 300 296 294 295 291 294 295 293 290 286 280 281 280 280 280 280 282 281 283 280 276 277 275 278 276 275 277 276 278 275 272 271 271 267 267 269 272 275 274 276 278 279 281 281
302 299 295 293 290 294 295 292 292 289 282 279 277 279 278 276 277 277 276 273 273 272 273 274 274 276 277 274 277 275 273 270 269 269 268 269 268 273 276 277 277 277 279 280 281
300 296 293 292 294 294 293 289 287 278 277 279 278 278 275 276 275 276 276 274 275 274 271 269 271 273 276 274 271 272 270 266 261 264 266 270 265 274 276 278 279 279 280 279 279
298 294 293 292 293 293 289 288 281 277 277 277 278 276 275 275 275 276 273 273 272 274 269 269 270 275 276 277 275 271 269 271 265 267 262 268 271 275 276 276 278 278 278 277 278
294 291 291 292 293 291 291 280 278 280 279 278 274 275 274 274 274 274 273 272 272 273 272 268 266 273 274 276 275 273 272 267 268 261 260 267 268 269 273 273 275 275 275 276 277
294 291 290 292 290 291 286 279 278 281 280 276 275 274 272 273 272 271 272 274 273 274 274 272 269 271 274 269 268 272 269 268 268 266 262 261 267 275 273 275 273 273 275 275 275
292 293 292 290 289 283 281 279 281 279 281 278 277 274 273 273 272 271 271 273 276 275 272 271 270 267 270 270 268 269 268 268 264 262 266 264 264 276 276 275 274 273 273 274 275
292 289 293 291 291 281 279 278 279 278 278 277 276 277 275 273 271 272 273 277 278 276 273 274 270 267 269 270 272 269 268 269 269 268 263 261 265 278 275 273 273 272 273 273 274
294 298 291 286 283 284 279 278 277 280 278 278 277 277 275 273 274 272 273 276 277 276 279 278 271 269 267 269 272 268 269 269 267 264 265 265 266 270 270 270 271 271 272 273 273
289 284 282 287 281 280 280 278 276 276 278 278 276 276 274 271 272 271 273 275 276 276 276 274 268 271 271 272 271 269 266 265 264 266 262 266 264 267 269 269 269 271 272 272 272
292 288 283 281 280 281 279 278 277 276 277 275 275 276 275 273 275 272 273 273 272 274 274 273 270 269 266 267 267 265 266 265 266 266 265 264 264 271 271 271 270 270 270 270 272
287 286 291 279 279 281 281 279 278 278 278 278 278 276 274 276 279 279 279 278 276 273 272 271 270 267 265 269 267 264 265 265 267 268 266 261 268 269 268 268 268 269 270 272 271
Wind_Speed
13 13 12 13 12 13 12 9 6 3 2 2 3 5 3 5 17 26 29 23 20 23 20 17 9 7 6 5 6 3 5 6 3 3 4 5 7 3 6 11 9 7 12 8 18
12 12 11 11 11 12 12 11 11 8 5 3 4 9 8 4 4 25 22 26 21 22 13 14 10 8 6 5 5 4 3 4 3 3 7 10 10 11 8 13 15 16 7 14 17
12 11 10 8 8 8 8 10 11 11 8 6 5 13 6 4 4 13 28 26 22 19 10 9 4 4 6 5 7 4 4 1 3 5 7 9 10 3 11 13 12 14 19 16 16
12 11 10 9 7 6 7 9 9 9 9 11 4 2 13 2 6 16 28 23 18 13 11 9 7 4 4 5 5 1 3 2 4 3 5 8 6 9 13 18 14 17 11 10 16
12 11 10 9 8 5 5 7 8 7 9 12 10 4 4 12 10 21 22 16 10 8 15 7 15 5 6 4 1 5 5 6 6 9 7 7 11 13 18 15 12 10 12 16 16
12 11 10 9 8 5 4 5 6 6 7 7 9 6 5 11 9 21 18 10 11 8 13 15 7 6 7 4 5 6 8 10 6 8 10 8 12 10 4 5 8 15 17 16 16
12 11 9 10 8 4 2 4 6 6 5 6 6 6 18 9 4 19 18 8 9 6 6 6 11 5 1 3 4 4 7 7 2 8 7 9 13 8 4 11 16 17 14 12 8
12 12 9 10 8 2 2 4 7 7 6 6 5 4 7 2 8 21 16 6 9 6 4 4 4 6 7 1 0 5 3 9 4 8 1 7 9 12 10 14 14 8 6 5 6
12 12 10 12 6 2 3 5 5 8 9 3 2 2 5 2 14 20 14 10 5 5 7 5 3 6 6 3 2 3 10 14 11 4 7 4 20 13 13 8 1 2 4 5 7
13 13 10 11 6 5 7 7 12 4 5 1 5 3 6 9 8 18 13 8 5 3 1 6 5 6 10 11 5 14 11 12 14 12 7 21 21 18 7 4 4 1 3 6 10
13 12 7 10 10 8 2 2 4 3 14 11 6 3 6 11 2 21 15 7 4 6 6 7 8 9 8 5 5 13 15 17 17 9 20 14 22 15 9 7 6 3 7 10 12
12 11 6 8 12 7 3 3 2 4 11 5 3 4 1 6 5 23 18 8 8 9 6 3 8 7 5 4 12 14 18 11 12 11 19 12 20 10 2 5 4 5 7 10 14
11 12 4 3 4 6 5 5 2 3 3 4 4 4 6 6 7 17 16 4 7 8 7 6 4 7 4 6 17 19 7 14 22 26 2 12 5 3 5 7 8 7 6 9 13
11 11 10 1 2 1 3 1 2 2 2 7 6 7 6 1 5 10 11 4 4 9 5 4 5 6 7 8 16 15 9 21 22 11 5 7 7 2 4 6 7 4 8 12 19
10 8 11 9 6 2 3 1 2 4 1 6 4 4 5 8 8 15 8 3 8 6 5 7 7 8 9 10 14 9 25 20 8 5 5 2 5 3 4 5 6 8 10 15 24
7 10 2 4 3 2 0 1 3 2 4 4 3 8 4 7 4 10 10 8 1 3 3 4 2 3 5 15 7 17 17 1 4 3 4 4 6 8 3 7 11 10 14 23 27
3 12 5 1 3 1 1 3 1 6 1 8 6 8 5 8 5 10 7 14 10 9 12 9 1 1 8 9 2 17 14 5 2 2 4 6 9 11 9 8 9 12 19 30 28
3 3 6 3 1 2 2 3 8 1 3 2 4 5 5 9 3 9 4 7 10 7 5 9 3 7 11 5 7 9 7 5 8 8 13 15 9 3 4 7 8 15 28 30 30
1 1 2 4 2 1 4 7 1 0 2 8 6 4 1 2 5 7 6 5 3 7 8 8 5 3 3 5 5 6 6 4 7 8 7 7 8 18 1 8 14 27 31 30 31
1 0 2 3 3 2 3 4 2 1 0 1 4 4 5 7 7 8 7 2 3 1 3 1 9 1 2 1 4 4 3 2 2 8 9 9 14 11 10 14 26 29 30 31 29
0 2 2 2 3 3 5 3 2 2 0 1 1 3 3 5 3 4 4 2 1 2 1 3 3 0 6 2 5 1 1 3 3 5 6 11 7 3 8 20 29 29 30 32 32
1 2 2 3 2 4 3 3 2 3 1 1 1 2 3 2 4 3 4 3 4 1 6 2 3 8 6 4 1 1 1 2 5 2 9 10 13 5 9 26 25 28 32 31 30
1 1 1 2 2 3 3 3 1 3 3 3 2 2 2 3 4 2 3 1 6 4 3 4 1 9 3 5 5 4 4 4 7 7 13 11 12 9 27 28 25 33 33 31 31
1 1 3 5 3 6 5 3 3 1 2 1 1 2 2 3 4 4 3 1 1 2 1 3 4 7 9 15 16 16 15 10 8 7 11 16 39 31 30 30 34 35 33 33 30
4 3 2 2 3 4 2 3 3 3 2 3 3 7 4 3 3 4 3 5 1 3 1 2 6 8 16 20 17 16 12 7 9 12 10 25 27 30 28 33 35 34 34 34 31
2 4 2 3 3 3 1 5 5 3 6 4 5 3 8 5 5 4 2 3 3 1 3 1 5 6 9 2 2 12 7 8 10 13 20 20 27 16 29 30 31 32 33 34 30
2 2 3 1 3 3 2 5 4 4 5 3 5 4 8 12 8 9 9 9 10 7 3 3 5 7 6 8 6 3 7 9 15 15 16 15 20 26 32 32 33 37 34 30 35
Wind_Direction
37 40 40 63 72 73 76 78 79 67 34 5 20 13 15 50 34 33 35 357 349 344 337 338 14 23 54 58 20 299 244 261 291 292 18 341 329 338 306 281 298 289 309 343 341
36 40 45 42 74 62 58 54 53 66 75 60 17 346 321 140 32 37 358 352 347 350 343 351 359 8 60 33 24 331 269 19 23 338 307 309 308 319 307 307 300 296 312 337 338
35 39 42 49 38 49 49 52 49 54 57 21 1 25 43 158 81 0 351 351 344 345 336 345 343 33 65 29 18 21 5 17 224 296 315 304 290 289 300 289 297 310 323 328 334
35 39 39 36 47 39 43 51 52 52 37 29 33 348 30 216 40 345 341 343 341 344 6 6 24 61 64 49 23 62 36 297 315 326 300 293 302 277 274 277 311 315 313 310 333
33 32 33 29 25 36 40 42 35 41 42 39 45 51 69 59 32 341 342 340 345 358 27 29 39 35 67 59 69 28 341 298 292 295 276 286 266 295 285 285 299 314 305 306 325
27 23 20 18 14 15 41 24 23 38 35 46 41 65 70 75 311 351 350 352 12 21 43 42 44 57 79 66 20 333 306 292 300 297 295 287 295 311 318 358 299 315 309 307 316
21 15 10 11 6 358 34 28 38 36 48 59 54 68 59 74 349 359 353 8 7 19 58 44 39 57 18 129 352 322 310 297 221 333 311 316 280 220 291 326 313 309 312 316 349
18 12 7 6 356 4 34 45 60 65 72 71 61 73 76 25 353 7 2 38 35 38 49 33 16 66 25 323 79 344 268 334 332 321 323 322 283 292 316 330 316 348 22 20 18
14 8 4 358 11 39 59 105 76 62 30 79 41 18 66 360 354 3 5 358 343 42 41 54 58 48 16 4 179 48 315 313 322 292 310 285 303 303 327 319 355 49 31 12 356
12 9 19 14 28 56 82 106 53 99 8 144 76 149 65 339 338 355 10 3 13 315 117 28 60 57 31 22 12 326 327 311 305 325 314 297 288 316 357 266 217 207 1 357 350
13 16 46 36 42 33 359 302 231 62 37 64 66 73 334 335 345 6 358 327 1 65 20 29 48 33 9 17 355 316 300 289 298 337 326 308 300 309 325 218 240 291 345 344 341
14 16 22 47 45 46 64 61 56 85 99 50 84 57 358 334 344 10 4 38 26 32 339 169 56 7 317 309 326 322 311 308 309 313 318 307 299 310 313 220 258 300 320 333 332
14 13 6 56 40 46 67 91 353 276 76 66 43 20 352 345 40 2 7 355 29 27 17 47 19 325 337 334 340 334 293 320 311 323 278 308 258 217 182 227 223 243 311 314 328
14 26 25 72 119 98 67 61 292 281 197 15 11 30 350 307 69 15 8 332 39 1 5 61 358 343 331 342 346 316 331 312 310 316 314 0 304 244 194 261 241 258 318 331 330
13 23 48 39 116 65 77 240 257 243 5 21 24 334 13 55 325 19 6 9 28 341 312 8 342 348 344 341 330 297 311 308 308 255 293 114 268 242 238 276 320 321 321 326 334
20 25 66 51 69 54 355 222 236 230 5 14 4 356 3 34 36 336 12 16 40 324 32 353 297 295 341 315 327 326 307 303 200 214 241 114 5 272 287 317 316 322 322 328 332
72 53 53 11 65 91 201 218 254 46 91 350 343 355 0 354 12 5 25 39 36 350 14 321 198 335 340 321 333 354 345 336 298 289 322 181 306 266 302 307 302 313 320 329 328
61 55 52 40 104 160 224 231 56 57 355 17 335 317 17 357 45 356 10 38 53 3 312 357 327 4 5 34 315 354 7 14 311 317 316 299 230 295 310 324 313 316 326 324 324
167 48 70 20 144 220 244 50 81 78 311 336 305 300 80 48 339 338 46 20 28 15 9 335 270 336 31 20 336 354 21 357 283 255 266 265 279 274 24 316 328 327 327 323 324
272 283 61 343 172 224 64 113 172 195 150 284 348 13 312 346 342 11 19 95 49 353 284 111 287 136 351 201 86 359 4 274 349 306 301 282 297 269 319 342 333 330 325 322 320
16 258 63 148 218 47 68 90 154 146 217 336 296 284 266 311 332 334 345 178 214 18 228 159 233 236 275 62 337 198 106 9 274 278 307 308 290 30 304 331 333 328 323 320 317
125 271 48 211 31 42 76 102 122 156 146 186 147 214 254 295 278 288 306 267 148 336 317 101 307 286 332 12 45 354 116 26 310 327 265 281 270 289 332 331 326 319 317 314 308
50 354 98 268 75 93 127 108 164 169 217 205 218 241 194 273 300 246 261 218 195 312 294 159 163 308 132 161 181 238 192 231 260 263 258 274 265 316 322 320 316 317 313 309 307
88 49 54 58 42 120 148 161 170 147 192 208 209 193 221 252 226 297 273 256 249 276 289 213 251 228 267 287 308 299 298 285 249 268 281 263 293 310 317 319 319 313 309 307 308
13 84 39 56 64 100 98 151 154 210 217 210 219 226 204 268 249 235 248 288 173 17 100 284 264 275 266 281 285 279 279 276 218 244 264 294 297 301 311 317 311 309 309 310 310
143 144 60 92 115 136 146 195 204 181 177 203 227 186 196 234 235 297 247 234 289 142 309 151 275 326 286 92 248 283 262 217 234 268 269 287 290 291 312 306 307 311 311 310 310
117 91 123 135 145 202 197 170 196 157 197 249 216 203 229 252 272 275 277 271 266 283 287 272 302 318 277 309 329 247 216 214 280 278 282 290 299 318 315 315 316 312 309 311 316